Regional Weather Roundup
Issued by NWS

Home | Current Version | Previous Version | Graphics & Text | Print | Product List | Glossary On
Versions: 1 2 3 4 5 6 7 8 9 10 11 12 13 14 15 16 17 18 19 20 21 22 23 24 25 26 27 28 29 30 31 32 33 34 35 36 37 38 39 40 41 42 43 44 45 46 47 48 49 50
000
ASUS45 KPSR 231400
RWRAZ

PRELIMINARY ARIZONA REGIONAL HOURLY WEATHER ROUNDUP
NATIONAL WEATHER SERVICE PHOENIX AZ
700 AM MST TUE SEP 23 2014

NOTE: FAIR INDICATES FEW OR NO CLOUDS BELOW 12,000 FEET WITH NO
SIGNIFICANT WEATHER AND/OR OBSTRUCTIONS TO VISIBILITY.

AZZ001>003-036-231500-
NORTHWEST ARIZONA

CITY           SKY/WX    TMP DP  RH WIND       PRES   REMARKS
KINGMAN        CLEAR     58  38  47 S5        30.11S
$$

AZZ004>008-015-016-018-231500-
NORTH CENTRAL ARIZONA

CITY           SKY/WX    TMP DP  RH WIND       PRES   REMARKS
GRAND CANYON   CLEAR     40  37  89 CALM      30.33R
PRESCOTT       CLEAR     52  38  58 S3        30.24R
FLAGSTAFF      CLEAR     45  41  86 CALM      30.35R
PAYSON         CLEAR     61  55  82 CALM      30.25R
PAGE           CLEAR     64  43  46 S9        30.17R
$$

AZZ009>014-017-231500-
NORTHEAST ARIZONA

CITY           SKY/WX    TMP DP  RH WIND       PRES   REMARKS
WINSLOW        NOT AVBL
SAINT JOHNS    SUNNY     60  57  89 S3        30.26S
WINDOW ROCK    SUNNY     49  45  86 CALM      30.34R
SHOW LOW       CLEAR     57  55  94 S7        30.33S
$$

AZZ023-231500-
GREATER PHOENIX AREA

CITY           SKY/WX    TMP DP  RH WIND       PRES   REMARKS
PHOENIX        CLEAR     77  55  46 SW3       29.93R
GLENDALE       CLEAR     73  50  43 CALM      29.96R
DEER VALLEY    CLEAR     75  50  41 CALM      29.96R
SCOTTSDALE     CLEAR     74  56  53 CALM      29.97R
MESA-FALCON    CLEAR     77  54  44 N6        29.95R
MESA-GATEWAY   CLEAR     68  59  73 CALM      29.97R
CHANDLER       CLEAR     73  61  64 CALM      29.95R
$$

AZZ027-028-231500-
SOUTHWEST MARICOPA COUNTY AND PINAL COUNTY

CITY           SKY/WX    TMP DP  RH WIND       PRES   REMARKS
CASA GRANDE    CLEAR     73  52  46 CALM      29.97R
GILA BEND      SUNNY     75  50  41 S3        29.94
$$

AZZ503-504-507>509-231500-
SOUTHEAST ARIZONA

CITY           SKY/WX    TMP DP  RH WIND       PRES   REMARKS
TUCSON         CLEAR     76  63  64 S6        30.05R
NOGALES        CLEAR     68  64  87 CALM      30.12R
SIERRA VISTA   PTCLDY    64  63  94 NW6       30.19R
SAFFORD        SUNNY     71  65  81 SE7       30.11R
$$

AZZ020-021-025-026-031-231500-
SOUTHWEST ARIZONA

CITY           SKY/WX    TMP DP  RH WIND       PRES   REMARKS
YUMA           NOT AVBL
$$

CAZ031-033-041-043-047-048-061-231500-
SOUTHERN CALIFORNIA

CITY           SKY/WX    TMP DP  RH WIND       PRES   REMARKS
DOWNTOWN L.A.  CLEAR     63  59  87 CALM      29.95R
L.A. AIRPORT   MOCLDY    65  62  91 CALM      29.96R FOG
SAN DIEGO      MOCLDY    67  62  84 NE3       29.96R HAZE
BURBANK        CLEAR     62  52  69 CALM      29.96R
ONTARIO        CLEAR     65  58  78 CALM      29.97R
RIVERSIDE      CLEAR     63  58  83 CALM      29.98R
PALM SPRINGS   CLEAR     77  41  27 VRB5      29.92R
EL CENTRO NAS  CLEAR     74  51  44 W5        29.87R
IMPERIAL       CLEAR     75  59  57 CALM      29.86R
BLYTHE         CLEAR     75  53  46 N7        29.90R
$$

NVZ020-UTZ003-231500-
SOUTHERN NEVADA-UTAH

CITY           SKY/WX    TMP DP  RH WIND       PRES   REMARKS
LAS VEGAS      NOT AVBL
SALT LAKE CITY PTCLDY    61  53  75 S7        30.14R
$$

NMZ009-TXZ055-231500-
NEW MEXICO-WEST TEXAS

CITY           SKY/WX    TMP DP  RH WIND       PRES   REMARKS
ALBUQUERQUE    MOSUNNY   60  56  86 CALM      30.28R
EL PASO        PTSUNNY   68  63  84 CALM      30.19R
$$


........................KEY........................
SKY/WX - SKY CONDITION/WEATHER
TMP    - TEMPERATURE IN FAHRENHEIT
DP     - DEW POINT IN FAHRENHEIT
RH     - RELATIVE HUMIDITY IN PERCENT
WIND   - DIRECTION AND SPEED IN MILES PER HOUR (MPH)
VRB    - VARIABLE WIND DIRECTION
PRES   - MEAN SEA LEVEL PRESSURE IN INCHES OF MERCURY
         F - FALLING PRESSURE   R - RISING PRESSURE
         S - STEADY PRESSURE
VSB    - VISIBILITY IN MILES
HX     - HEAT INDEX IN FAHRENHEIT
WCI    - WIND CHILL INDEX IN FAHRENHEIT
TC     - TEMPERATURE IN CELSIUS WHICH IS ALSO KNOWN AS
         TEMPERATURE IN CENTIGRADE
AFB    - AIR FORCE BASE
         LUKE AFB IS LUKE AIR FORCE BASE
         DAVIS-MONTHAN IS DAVIS-MONTHAN AIR FORCE BASE
NAS    - NAVAL AIR STATION
         EL CENTRO NAS IS EL CENTRO NAVAL AIR STATION
N/A    - NOT AVAILABLE



USA.gov is the U.S. government's official web portal to all federal, state and local government web resources and services.